Weather in Zvenigovo

Russia / Mari El Republic     55°58′20″N   48°00′55″E
temp.,
°C
wind,
m/s
gust,
m/s
humid.,
%
clouds,
%
prec.,
mm/h
press.,
hPa
HPBL,
m
26 february, fri
fri2600:00−18se489598 0.0 1016288
03:00−19ese499797 0.1 1017233
06:00−21ese369990 0.0 1016136
09:00−18se489693 0.1 1016288
12:00−14se61093100 0.0 1014422
15:00−12se71291100 0.1 1011563
18:00−11se91794100 0.9 1005559
21:00−10sse91794100 6.0 1000620
27 february, sat
sat2700:00−9se71294100 3.4 997393
03:00−8ese3496100 4.4 996129
06:00−7e2396100 1.4 994104
09:00−6ene2396100 2.8 995147
12:00−6ne4595100 1.1 996312
15:00−7nne5794100 1.8 999504
18:00−9nne5994100 0.5 1001491
21:00−12n5993100 0.7 1003418
28 february, sun
sun2800:00−13n599495 0.1 1005371
03:00−16nnw599597 0.2 1008269
06:00−20nnw499696 0.0 1009208
09:00−18nnw479570 0.0 1010265
12:00−14nnw479178 0.0 1012413
15:00−13nnw579088 0.0 1013561
18:00−18n359691 0.0 101572
21:00−21n339848 0.0 101840
1 march, mon
mon100:00−22nnw33970 0.0 101927
03:00−23nnw23980 0.0 102123
06:00−24nnw239918 0.0 102221
09:00−20nw229620 0.0 1023113
12:00−14w228856 0.0 1023287
15:00−13wsw349062 0.0 1023291
18:00−17wsw349415 0.0 102172
21:00−15sw4109441 0.0 1019229
2 march, tue
tue200:00−11sw51194100 0.1 1014338
03:00−9sw61295100 1.4 1010468
06:00−6sw51195100 0.8 1007413
09:00−2w5997100 1.6 1005473
12:000nw4810095 0.3 1004580
15:000wnw379871 0.4 1003557
18:00−1wnw2599100 1.9 1003211
21:00−1nw41096100 4.1 1004629